Flag for Spain Weather past 2 weeks in Alicante, Spain

52 °F


Feels Like: 50 °F
Forecast: 41 / 66 °F
Wind: 6 mph from Northwest

Location: Alicante / El Altet

Current Time: Nov 30, 2015 at 12:45:59 AM

Latest Report: Nov 30, 2015 at 12:00 AM

Visibility: 10 mi

Pressure: 30.57 "Hg

Humidity: 94%

Dew point: 50 °F

Location of AlicanteLocation

Historic Weather in Alicante — Graph


Alicante temperature yesterday

Maximum temperature yesterday: 64 °F (at 11:30 AM)
Minimum temperature yesterday: 45 °F (at 8:00 AM)
Average temperature yesterday: 55 °F

Past Weeks' High & Low Weather Summary

High79 °F (Nov 20, 4:00 PM)100% (Nov 15, 8:30 PM)30.57 "Hg (Nov 15, 8:30 PM)
Low41 °F (Nov 24, 5:30 AM)22% (Nov 26, 2:00 PM)29.80 "Hg (Nov 21, 12:30 PM)
Average59 °F62%30.17 "Hg
* Reported Nov 14 11:00 PM — Nov 29 11:30 PM, Alicante, Weather by CustomWeather, © 2015

Note: Actual official high and low records may vary slightly from our data, if they occured in-between our weather recording intervals... More about our weather records


Alicante weather history for previous 24 hours

Time TempWeatherWind HumidityBarometerVisibility
11:30 PM
Sun, Nov 29
52 °FClear.3 mph88%30.57 "Hg10 mi
11:00 PM54 °FPassing clouds.3 mph94%30.57 "HgN/A
10:30 PM50 °FClear.2 mph94%30.57 "Hg10 mi
10:00 PM54 °FClear.1 mph88%30.57 "Hg10 mi
9:30 PM54 °FClear.1 mph94%30.57 "Hg10 mi
9:00 PM52 °FClear.1 mph94%30.57 "Hg10 mi
8:30 PM54 °FClear.1 mph94%30.57 "Hg10 mi
8:00 PM52 °FClear.2 mph88%30.54 "Hg10 mi
7:30 PM54 °FClear.1 mph94%30.54 "Hg10 mi
7:00 PM55 °FClear.No wind88%30.54 "Hg10 mi
6:30 PM59 °FClear.No wind82%30.54 "Hg10 mi
6:00 PM59 °FClear.No wind82%30.51 "Hg10 mi
5:30 PM61 °FSunny.2 mph77%30.51 "Hg10 mi
5:00 PM63 °FPassing clouds.3 mph73%30.51 "HgN/A
4:30 PM63 °FPassing clouds.6 mph68%30.48 "HgN/A
4:00 PM64 °FPassing clouds.6 mph64%30.48 "HgN/A
3:30 PM64 °FPassing clouds.5 mph64%30.48 "HgN/A
3:00 PM64 °FPassing clouds.5 mph64%30.48 "HgN/A
2:30 PM64 °FPassing clouds.6 mph64%30.48 "HgN/A
2:00 PM64 °FPassing clouds.2 mph64%30.48 "HgN/A
1:30 PM64 °FPassing clouds.2 mph64%30.51 "HgN/A
1:00 PM64 °FPassing clouds.2 mph64%30.51 "HgN/A
12:30 PM64 °FPassing clouds.1 mph64%30.51 "HgN/A
12:00 PM64 °FPassing clouds.1 mph60%30.51 "HgN/A
11:30 AM64 °FPassing clouds.No wind56%30.51 "HgN/A
10:30 AM59 °FPassing clouds.No wind63%30.51 "HgN/A
10:00 AM55 °FPassing clouds.1 mph72%30.51 "HgN/A
9:30 AM54 °FPassing clouds.No wind72%30.48 "HgN/A
9:00 AM50 °FPassing clouds.No wind82%30.48 "HgN/A
8:30 AM46 °FPassing clouds.No wind87%30.45 "HgN/A
8:00 AM45 °FPassing clouds.1 mph87%30.45 "HgN/A
7:30 AM48 °FPassing clouds.1 mph82%30.42 "HgN/A
7:00 AM46 °FClear.1 mph87%30.42 "Hg10 mi
6:00 AM46 °FClear.2 mph82%30.39 "Hg10 mi
5:30 AM48 °FClear.2 mph82%30.39 "Hg10 mi
5:00 AM50 °FClear.2 mph82%30.36 "Hg10 mi
4:30 AM48 °FClear.3 mph82%30.36 "Hg10 mi
4:00 AM50 °FClear.No wind76%30.36 "Hg10 mi
3:30 AM50 °FClear.2 mph82%30.36 "Hg10 mi
3:00 AM50 °FClear.5 mph82%30.36 "Hg10 mi
2:30 AM50 °FClear.6 mph82%30.36 "Hg10 mi
2:00 AM50 °FClear.5 mph88%30.36 "Hg10 mi
1:30 AM48 °FClear.6 mph94%30.33 "Hg10 mi
1:00 AM50 °FClear.2 mph88%30.33 "Hg10 mi
12:30 AM52 °FClear.1 mph82%30.33 "Hg10 mi
12:00 AM52 °FClear.5 mph82%30.33 "Hg10 mi
Weather by CustomWeather, © 2015

See weather overviewHow to use our weather pages